Location: Clover
(42.5131°N, 114.6874°W)
Time: 11:50:22
(UTC+00:00)

Explorer 7 - Pass Details

Date: 14 December 2025
Orbit: 433 x 550 km, 50.2° (Epoch: 13 January)

Event Time Altitude Azimuth Distance (km) Brightness Sun altitude
Rises 02:30:40 0° 275° (W) 2,447 11.4 -25.7°
Reaches altitude 10° 02:33:03 10° 288° (WNW) 1,561 9.9 -26.2°
Enters shadow 02:34:39 20° 310° (NW) 1,078 8.7 -26.5°
